Regional Weather Roundup
Issued by NWS

Home | Current Version | Previous Version | Text Only | Print | Product List | Glossary Off
Versions: 1 2 3 4 5 6 7 8 9 10 11 12 13 14 15 16 17 18 19 20 21 22 23 24 25 26 27 28 29 30 31 32 33 34 35 36 37 38 39 40 41 42 43 44 45 46 47 48 49 50

000
ASUS43 KIND 230209
RWRIN

WEATHER ROUNDUP FOR INDIANA
NATIONAL WEATHER SERVICE INDIANAPOLIS IN
1000 PM EDT TUE APR 22 2014

NOTE: "FAIR" INDICATES FEW OR NO CLOUDS BELOW 12,000 FEET WITH NO
SIGNIFICANT WEATHER AND/OR OBSTRUCTIONS TO VISIBILITY.

* - STATION DOES NOT REPORT WEATHER SUCH AS PRECIPITATION OR FOG.

+ - STATION NOT QUALITY CONTROLLED BY THE NATIONAL WEATHER SERVICE.
    USE DATA WITH CAUTION...ESPECIALLY DEWPOINT AND RELATIVE
    HUMIDITY OBSERVATIONS.

INZ001>003-010>013-019-020-230300-
NORTHWEST INDIANA

CITY           SKY/WX    TMP DP  RH WIND       PRES   REMARKS
GARY /AIRPORT/ CLEAR     43  30  61 NE10      30.06R
LA PORTE +     CLEAR     39  27  62 N10       30.04R
MICHIGAN CITY+ CLEAR     37  28  70 N7        30.05R
MONTICELLO +   CLEAR     46  32  59 N9G17     30.00R
RENSSELAER +   CLEAR     43  32  65 N10       30.03R
VALPARAISO     CLEAR     39  27  62 N8        30.05R

$$

LMZ046-743>745-230300-
SOUTHERN LAKE MICHIGAN

STATION/POSITION TIME  TEMP WIND        PRES
                       AIR  DIR/SP/G
                 (UTC) (F)  (DEG/KT/KT) (MB)
MICHIGAN CITY    0200   40  360/ 11/ 14   N/A

$$

INZ004-005-014>016-021>024-230300-
NORTH CENTRAL INDIANA

CITY           SKY/WX    TMP DP  RH WIND       PRES   REMARKS
GOSHEN         CLEAR     44  29  55 NW10      29.98R
LOGANSPORT +   CLEAR     45  32  61 N10       30.01R
PERU/GRISSOM   CLEAR     46  34  64 N9        30.00R
ROCHESTER +    CLEAR     45  32  61 N9        30.02R
SOUTH BEND     CLEAR     41  28  60 NW7       30.02R
WARSAW +       CLEAR     43  30  61 NW8       30.00R

$$

INZ006>009-017-018-025>027-230300-
NORTHEAST INDIANA

CITY           SKY/WX    TMP DP  RH WIND       PRES   REMARKS
ANGOLA *+      CLEAR     43  30  61 N6        29.96R
AUBURN +       CLEAR     45  28  53 NW7       29.97R
FORT WAYNE     CLEAR     45  30  55 NW9       29.97R

$$

INZ028-029-035-036-043>045-051>053-230300-
WEST CENTRAL INDIANA

CITY           SKY/WX    TMP DP  RH WIND       PRES   REMARKS
GREENCASTLE +  CLEAR     48  36  61 NE7       29.98R
LAFAYETTE      CLEAR     48  33  56 N12       30.00R
TERRE HAUTE    CLEAR     54  36  50 N6        29.98R

$$

INZ030>032-037>040-046>048-054>057-064-065-230300-
CENTRAL INDIANA

CITY           SKY/WX    TMP DP  RH WIND       PRES   REMARKS
CP ATTERBURY + CLEAR     48  32  53 NE3       29.98R
GREENWOOD *+   CLEAR     48  32  53 NE7       29.98R
INDIANAPOLIS   PTCLDY    48  31  51 N7        29.96R
-EAGLE CREEK   CLEAR     49  30  48 N5        29.97R
KOKOMO *+      CLEAR     45  30  57 N12       30.00R
MARION +       CLEAR     45  30  55 N7        29.99R
MT COMFORT *+  CLEAR     45  32  61 N6        29.98R
SHELBYVILLE    CLEAR     50  31  48 N7        29.97R
ZIONSVILLE +   CLEAR     45  31  60 N3        29.99R

$$

INZ033-034-041-042-049-050-058-059-230300-
EAST CENTRAL INDIANA

CITY           SKY/WX    TMP DP  RH WIND       PRES   REMARKS
MUNCIE         CLEAR     43  32  65 N6        29.98R

$$

INZ060-061-067>069-081>083-085>088-230300-
SOUTHWEST INDIANA

CITY           SKY/WX    TMP DP  RH WIND       PRES   REMARKS
EVANSVILLE     CLEAR     61  36  39 NW6       29.97R
HUNTINGBURG *+ CLEAR     57  36  44 N6        29.96R
WASHINGTON +   CLEAR     53  37  53 N7        29.96R

$$

INZ062-063-066-070>080-084-089>092-230300-
SOUTH CENTRAL AND SOUTHEAST INDIANA

CITY           SKY/WX    TMP DP  RH WIND       PRES   REMARKS
BLOOMINGTON    CLEAR     55  33  43 VRB5      29.96R

$$




USA.gov is the U.S. government's official web portal to all federal, state and local government web resources and services.